Weather History for KBIX - September, 2013

Change the Weather History Date:

Monday, September 16, 2013

  Actual Average Record
Temperature  
Mean Temperature 81 °F -  
Max Temperature 89 °F 86 °F 94 °F (1982)
Min Temperature 73 °F 70 °F 55 °F (2004)
Cooling Degree Days 16    
Growing Degree Days 31 (Base 50)    
Moisture  
Dew Point 72 °F    
Average Humidity 74    
Maximum Humidity 95    
Minimum Humidity 55    
Precipitation  
Precipitation 0.00 in - - ()
Sea Level Pressure  
Sea Level Pressure 30.05 in    
Wind  
Wind Speed 5 mph (East)    
Max Wind Speed 17 mph    
Max Gust Speed 28 mph    
Visibility 10 miles    
Events      
Averages and records for this station are not official NWS values.
T = Trace of Precipitation, MM = Missing Value Source: NWS Daily Summary

Daily Weather History Graph

Daily Weather History Graph

Search for Another Location

Airport or City:

Trip Planner

Search our weather history database for the weather conditions in past years. The results will help you decide how hot, cold, wet, or windy it might be!

Date:

Astronomy

Sep. 16, 2013 Rise Set
Actual Time 6:40 AM CDT 6:59 PM CDT
Civil Twilight 6:16 AM CDT 7:23 PM CDT
Nautical Twilight 5:48 AM CDT 7:51 PM CDT
Astronomical Twilight 5:20 AM CDT 8:20 PM CDT
Moon 5:00 PM CDT (9/16) 3:37 AM CDT (9/16)
Length of Visible Light 13h 06m
Length of Day
12h 18m
Waxing Gibbous, 90% of the Moon is Illuminated
Sep 16
Waxing Gibbous
Sep 19
Full
Sep 26
Last Quarter
Oct 4
New
Oct 11
First Quarter

Hourly Weather History & Observations

Time (CDT) Temp. Heat Index Dew Point Humidity Pressure Visibility Wind Dir Wind Speed Gust Speed Precip Events Conditions
12:55 AM 78.3 °F - 73.9 °F 87% 30.06 in 10.0 mi ENE 3.5 mph - N/A   Clear
1:55 AM 76.8 °F - 73.6 °F 90% 30.06 in 10.0 mi NE 4.6 mph - N/A   Clear
2:55 AM 75.7 °F - 72.7 °F 90% 30.04 in 10.0 mi East 4.6 mph - N/A   Clear
3:55 AM 75.6 °F - 73.0 °F 92% 30.04 in 10.0 mi Calm Calm - N/A   Clear
4:55 AM 73.8 °F - 72.0 °F 94% 30.04 in 10.0 mi NE 3.5 mph - N/A   Clear
5:55 AM 73.8 °F - 72.1 °F 95% 30.03 in 10.0 mi NNE 5.8 mph - N/A   Clear
6:58 AM 73.4 °F - 71.6 °F 94% 30.05 in 10.0 mi NE 4.6 mph - N/A   Clear
7:55 AM 73.4 °F - 71.6 °F 94% 30.06 in 10.0 mi NE 3.5 mph - N/A   Scattered Clouds
8:56 AM 80.6 °F 85.4 °F 73.4 °F 79% 30.06 in 10.0 mi NE 9.2 mph - N/A   Scattered Clouds
9:56 AM 86.0 °F 95.1 °F 75.2 °F 70% 30.09 in 10.0 mi NE 6.9 mph - N/A   Scattered Clouds
10:55 AM 87.8 °F 95.6 °F 73.4 °F 62% 30.10 in 10.0 mi East 9.2 mph - N/A   Scattered Clouds
11:58 AM 89.6 °F 96.2 °F 71.6 °F 55% 30.09 in 10.0 mi Variable 5.8 mph - N/A   Mostly Cloudy
12:55 PM 89.6 °F 99.8 °F 75.2 °F 62% 30.07 in 10.0 mi South 10.4 mph - N/A   Mostly Cloudy
1:58 PM 89.6 °F 99.8 °F 75.2 °F 62% 30.06 in 10.0 mi South 9.2 mph - N/A   Mostly Cloudy
2:56 PM 89.6 °F 99.8 °F 75.2 °F 62% 30.04 in 10.0 mi South 9.2 mph - N/A   Mostly Cloudy
3:55 PM 89.6 °F 96.2 °F 71.6 °F 55% 30.03 in 10.0 mi South 9.2 mph - N/A   Scattered Clouds
4:55 PM 89.6 °F 96.2 °F 71.6 °F 55% 30.02 in 10.0 mi South 9.2 mph - N/A   Scattered Clouds
5:55 PM 87.8 °F 97.6 °F 75.2 °F 66% 30.01 in 10.0 mi SSW 8.1 mph - N/A   Scattered Clouds
6:55 PM 84.2 °F 90.9 °F 73.4 °F 70% 30.02 in 10.0 mi SSW 6.9 mph - N/A   Scattered Clouds
7:55 PM 80.6 °F 83.2 °F 68.0 °F 65% 30.06 in 10.0 mi ENE 17.3 mph 27.6 mph N/A   Scattered Clouds
8:55 PM 78.8 °F - 68.4 °F 70% 30.06 in 10.0 mi NE 5.8 mph - N/A   Overcast
9:58 PM 79.2 °F - 68.9 °F 71% 30.06 in 10.0 mi Calm Calm - N/A   Overcast
10:55 PM 78.8 °F - 69.4 °F 73% 30.06 in 10.0 mi Calm Calm - N/A   Mostly Cloudy